Time,TemperatureF,DewpointF,PressureIn,WindDirection,WindDirectionDegrees,WindSpeedMPH,WindSpeedGustMPH,Humidity,HourlyPrecipIn,Conditions,Clouds,dailyrainin,SoftwareType,DateUTC
2013-03-04 00:02:00,39.6,34.6,30.14,NE,54,4.0,16.0,82,0.00,,,0.00,Wunderground v.1.15,2013-03-04 08:02:00,
2013-03-04 00:08:00,39.6,34.2,30.13,NE,54,5.0,16.0,81,0.00,,,0.00,Wunderground v.1.15,2013-03-04 08:08:00,
2013-03-04 00:14:00,39.5,34.2,30.13,NE,36,5.0,6.0,81,0.00,,,0.00,Wunderground v.1.15,2013-03-04 08:14:00,
2013-03-04 00:20:00,39.1,33.8,30.13,NE,40,4.0,4.0,81,0.00,,,0.00,Wunderground v.1.15,2013-03-04 08:20:00,
2013-03-04 00:25:00,38.5,32.9,30.13,NE,43,4.0,6.0,80,0.00,,,0.00,Wunderground v.1.15,2013-03-04 08:25:00,
2013-03-04 00:31:00,38.0,32.7,30.13,NE,43,3.0,4.0,81,0.00,,,0.00,Wunderground v.1.15,2013-03-04 08:31:00,
2013-03-04 00:36:00,37.8,32.8,30.13,NE,43,3.0,5.0,82,0.00,,,0.00,Wunderground v.1.15,2013-03-04 08:36:00,
2013-03-04 00:41:00,37.7,32.7,30.13,NE,43,3.0,4.0,82,0.00,,,0.00,Wunderground v.1.15,2013-03-04 08:41:00,
2013-03-04 00:47:00,37.6,32.6,30.13,NE,43,3.0,4.0,82,0.00,,,0.00,Wunderground v.1.15,2013-03-04 08:47:00,
2013-03-04 00:52:00,37.7,33.0,30.13,NE,43,3.0,5.0,83,0.00,,,0.00,Wunderground v.1.15,2013-03-04 08:52:00,
2013-03-04 00:58:00,37.6,32.6,30.12,NE,43,4.0,5.0,82,0.00,,,0.00,Wunderground v.1.15,2013-03-04 08:58:00,
2013-03-04 01:03:00,37.7,32.7,30.12,NE,45,4.0,9.0,82,0.00,,,0.00,Wunderground v.1.15,2013-03-04 09:03:00,
2013-03-04 01:08:00,37.8,32.8,30.12,NE,45,4.0,9.0,82,0.00,,,0.00,Wunderground v.1.15,2013-03-04 09:08:00,
2013-03-04 01:15:00,37.6,32.6,30.11,NE,56,4.0,9.0,82,0.00,,,0.00,Wunderground v.1.15,2013-03-04 09:15:00,
2013-03-04 01:21:00,37.3,32.3,30.11,NE,56,3.0,9.0,82,0.00,,,0.00,Wunderground v.1.15,2013-03-04 09:21:00,
2013-03-04 01:26:00,37.0,32.0,30.11,NE,56,4.0,9.0,82,0.00,,,0.00,Wunderground v.1.15,2013-03-04 09:26:00,
2013-03-04 01:32:00,37.0,32.3,30.11,NE,56,4.0,9.0,83,0.00,,,0.00,Wunderground v.1.15,2013-03-04 09:32:00,
2013-03-04 01:38:00,37.1,32.4,30.11,NE,56,4.0,9.0,83,0.00,,,0.00,Wunderground v.1.15,2013-03-04 09:38:00,
2013-03-04 01:44:00,36.7,32.0,30.11,NE,56,2.0,9.0,83,0.00,,,0.00,Wunderground v.1.15,2013-03-04 09:44:00,
2013-03-04 01:49:00,36.5,31.8,30.11,NE,56,2.0,9.0,83,0.00,,,0.00,Wunderground v.1.15,2013-03-04 09:49:00,
2013-03-04 01:55:00,36.6,32.2,30.10,NE,56,3.0,9.0,84,0.00,,,0.00,Wunderground v.1.15,2013-03-04 09:55:00,
2013-03-04 02:01:00,36.5,32.1,30.10,NE,56,3.0,9.0,84,0.00,,,0.00,Wunderground v.1.15,2013-03-04 10:01:00,
2013-03-04 02:06:00,36.3,31.9,30.10,NE,56,2.0,9.0,84,0.00,,,0.00,Wunderground v.1.15,2013-03-04 10:06:00,
2013-03-04 02:12:00,36.2,32.1,30.10,NE,56,2.0,9.0,85,0.00,,,0.00,Wunderground v.1.15,2013-03-04 10:12:00,
2013-03-04 02:18:00,36.1,32.0,30.10,NE,56,3.0,9.0,85,0.00,,,0.00,Wunderground v.1.15,2013-03-04 10:18:00,
2013-03-04 02:23:00,35.9,31.8,30.10,NE,56,3.0,9.0,85,0.00,,,0.00,Wunderground v.1.15,2013-03-04 10:23:00,
2013-03-04 02:29:00,35.9,32.1,30.09,NE,56,3.0,9.0,86,0.00,,,0.00,Wunderground v.1.15,2013-03-04 10:29:00,
2013-03-04 02:34:00,36.0,32.2,30.09,NE,56,4.0,9.0,86,0.00,,,0.00,Wunderground v.1.15,2013-03-04 10:34:00,
2013-03-04 02:40:00,35.9,32.1,30.09,NE,56,3.0,3.0,86,0.00,,,0.00,Wunderground v.1.15,2013-03-04 10:40:00,
2013-03-04 02:46:00,35.7,32.2,30.09,NE,56,3.0,9.0,87,0.00,,,0.00,Wunderground v.1.15,2013-03-04 10:46:00,
2013-03-04 02:52:00,35.6,32.1,30.09,NE,56,3.0,9.0,87,0.00,,,0.00,Wunderground v.1.15,2013-03-04 10:52:00,
2013-03-04 02:58:00,35.4,31.9,30.09,NE,56,3.0,9.0,87,0.00,,,0.00,Wunderground v.1.15,2013-03-04 10:58:00,
2013-03-04 03:03:00,35.2,31.7,30.08,NE,56,4.0,9.0,87,0.00,,,0.00,Wunderground v.1.15,2013-03-04 11:03:00,
2013-03-04 03:09:00,35.1,31.9,30.08,NE,56,4.0,9.0,88,0.00,,,0.00,Wunderground v.1.15,2013-03-04 11:09:00,
2013-03-04 03:14:00,35.0,32.1,30.08,NE,56,4.0,9.0,89,0.00,,,0.00,Wunderground v.1.15,2013-03-04 11:14:00,
2013-03-04 03:21:00,34.9,32.0,30.08,NE,56,5.0,9.0,89,0.00,,,0.00,Wunderground v.1.15,2013-03-04 11:21:00,
2013-03-04 03:27:00,34.8,31.9,30.08,NE,56,5.0,9.0,89,0.00,,,0.00,Wunderground v.1.15,2013-03-04 11:27:00,
2013-03-04 03:32:00,34.7,31.8,30.07,NE,56,5.0,9.0,89,0.00,,,0.00,Wunderground v.1.15,2013-03-04 11:32:00,
2013-03-04 03:38:00,34.6,31.7,30.07,NE,56,5.0,9.0,89,0.00,,,0.00,Wunderground v.1.15,2013-03-04 11:38:00,
2013-03-04 03:43:00,34.8,31.9,30.07,NE,56,6.0,9.0,89,0.00,,,0.00,Wunderground v.1.15,2013-03-04 11:43:00,
2013-03-04 03:49:00,34.7,31.8,30.07,ENE,57,6.0,9.0,89,0.00,,,0.00,Wunderground v.1.15,2013-03-04 11:49:00,
2013-03-04 03:54:00,34.7,31.8,30.07,ENE,57,6.0,9.0,89,0.00,,,0.00,Wunderground v.1.15,2013-03-04 11:54:00,
2013-03-04 03:59:00,34.6,31.7,30.07,ENE,57,5.0,9.0,89,0.00,,,0.00,Wunderground v.1.15,2013-03-04 11:59:00,
2013-03-04 04:05:00,34.6,31.7,30.06,ENE,57,4.0,9.0,89,0.00,,,0.00,Wunderground v.1.15,2013-03-04 12:05:00,
2013-03-04 04:11:00,34.8,31.9,30.06,ENE,57,4.0,9.0,89,0.00,,,0.00,Wunderground v.1.15,2013-03-04 12:11:00,
2013-03-04 04:17:00,34.7,31.8,30.06,ENE,57,5.0,9.0,89,0.00,,,0.00,Wunderground v.1.15,2013-03-04 12:17:00,
2013-03-04 04:22:00,34.7,31.8,30.06,ENE,57,4.0,9.0,89,0.00,,,0.00,Wunderground v.1.15,2013-03-04 12:22:00,
2013-03-04 04:27:00,34.6,31.7,30.06,ENE,57,4.0,9.0,89,0.00,,,0.00,Wunderground v.1.15,2013-03-04 12:27:00,
2013-03-04 04:32:00,34.6,31.7,30.06,ENE,57,4.0,9.0,89,0.00,,,0.00,Wunderground v.1.15,2013-03-04 12:32:00,
2013-03-04 04:38:00,34.5,31.6,30.07,ENE,57,3.0,9.0,89,0.00,,,0.00,Wunderground v.1.15,2013-03-04 12:38:00,
2013-03-04 04:43:00,34.4,31.5,30.07,ENE,57,2.0,9.0,89,0.00,,,0.00,Wunderground v.1.15,2013-03-04 12:43:00,
2013-03-04 04:48:00,34.4,31.5,30.07,ENE,57,2.0,9.0,89,0.00,,,0.00,Wunderground v.1.15,2013-03-04 12:48:00,
2013-03-04 04:54:00,34.5,31.6,30.06,ENE,57,2.0,9.0,89,0.00,,,0.00,Wunderground v.1.15,2013-03-04 12:54:00,
2013-03-04 04:59:00,34.4,31.5,30.06,ENE,57,2.0,9.0,89,0.00,,,0.00,Wunderground v.1.15,2013-03-04 12:59:00,
2013-03-04 05:04:00,34.4,31.8,30.06,ENE,57,3.0,9.0,90,0.00,,,0.00,Wunderground v.1.15,2013-03-04 13:04:00,
2013-03-04 05:11:00,34.5,31.9,30.06,ENE,57,3.0,9.0,90,0.00,,,0.00,Wunderground v.1.15,2013-03-04 13:11:00,
2013-03-04 05:17:00,34.6,32.0,30.06,ENE,57,3.0,9.0,90,0.00,,,0.00,Wunderground v.1.15,2013-03-04 13:17:00,
2013-03-04 05:22:00,34.6,31.7,30.05,ENE,57,3.0,9.0,89,0.00,,,0.00,Wunderground v.1.15,2013-03-04 13:22:00,
2013-03-04 05:28:00,34.4,31.8,30.05,ENE,57,3.0,9.0,90,0.00,,,0.00,Wunderground v.1.15,2013-03-04 13:28:00,
2013-03-04 05:33:00,34.4,31.8,30.05,ENE,57,3.0,9.0,90,0.00,,,0.00,Wunderground v.1.15,2013-03-04 13:33:00,
2013-03-04 05:39:00,34.4,31.8,30.05,ENE,57,3.0,9.0,90,0.00,,,0.00,Wunderground v.1.15,2013-03-04 13:39:00,
2013-03-04 05:44:00,34.1,31.5,30.04,ENE,57,3.0,9.0,90,0.00,,,0.00,Wunderground v.1.15,2013-03-04 13:44:00,
2013-03-04 05:50:00,34.1,31.5,30.04,ENE,57,4.0,9.0,90,0.00,,,0.00,Wunderground v.1.15,2013-03-04 13:50:00,
2013-03-04 05:56:00,34.2,31.6,30.04,ENE,57,4.0,9.0,90,0.00,,,0.00,Wunderground v.1.15,2013-03-04 13:56:00,
2013-03-04 06:02:00,34.1,31.5,30.03,ENE,57,3.0,9.0,90,0.00,,,0.00,Wunderground v.1.15,2013-03-04 14:02:00,
2013-03-04 06:08:00,34.2,31.6,30.04,ENE,57,2.0,9.0,90,0.00,,,0.00,Wunderground v.1.15,2013-03-04 14:08:00,
2013-03-04 06:14:00,34.3,31.7,30.04,ENE,57,1.0,9.0,90,0.00,,,0.00,Wunderground v.1.15,2013-03-04 14:14:00,
2013-03-04 06:19:00,34.4,31.8,30.04,ENE,57,1.0,9.0,90,0.00,,,0.00,Wunderground v.1.15,2013-03-04 14:19:00,
2013-03-04 06:24:00,34.4,31.8,30.04,ENE,57,0.0,9.0,90,0.00,,,0.00,Wunderground v.1.15,2013-03-04 14:24:00,
2013-03-04 06:30:00,34.4,31.8,30.04,ENE,57,0.0,9.0,90,0.00,,,0.00,Wunderground v.1.15,2013-03-04 14:30:00,
2013-03-04 06:36:00,34.4,31.8,30.04,ENE,57,0.0,9.0,90,0.00,,,0.00,Wunderground v.1.15,2013-03-04 14:36:00,
2013-03-04 06:42:00,34.5,31.9,30.04,ENE,57,0.0,9.0,90,0.00,,,0.00,Wunderground v.1.15,2013-03-04 14:42:00,
2013-03-04 06:47:00,34.6,32.0,30.04,ENE,57,0.0,9.0,90,0.00,,,0.00,Wunderground v.1.15,2013-03-04 14:47:00,
2013-03-04 06:53:00,34.8,32.2,30.05,ENE,57,0.0,9.0,90,0.00,,,0.00,Wunderground v.1.15,2013-03-04 14:53:00,
2013-03-04 07:00:00,35.1,32.5,30.05,ENE,57,0.0,9.0,90,0.00,,,0.00,Wunderground v.1.15,2013-03-04 15:00:00,
2013-03-04 07:06:00,35.1,32.2,30.05,ENE,57,0.0,9.0,89,0.00,,,0.00,Wunderground v.1.15,2013-03-04 15:06:00,
2013-03-04 07:11:00,35.1,32.2,30.05,ENE,57,0.0,9.0,89,0.00,,,0.00,Wunderground v.1.15,2013-03-04 15:11:00,
2013-03-04 07:17:00,35.1,32.2,30.05,ENE,57,0.0,9.0,89,0.00,,,0.00,Wunderground v.1.15,2013-03-04 15:17:00,
2013-03-04 07:23:00,35.2,32.3,30.05,ENE,57,0.0,9.0,89,0.00,,,0.00,Wunderground v.1.15,2013-03-04 15:23:00,
2013-03-04 07:28:00,35.2,32.3,30.05,ENE,57,0.0,9.0,89,0.00,,,0.00,Wunderground v.1.15,2013-03-04 15:28:00,
2013-03-04 07:34:00,35.3,32.4,30.05,ENE,57,1.0,9.0,89,0.00,,,0.00,Wunderground v.1.15,2013-03-04 15:34:00,
2013-03-04 07:40:00,35.4,32.5,30.05,ENE,57,1.0,1.0,89,0.00,,,0.00,Wunderground v.1.15,2013-03-04 15:40:00,
2013-03-04 07:46:00,35.6,32.7,30.05,ENE,57,1.0,9.0,89,0.00,,,0.00,Wunderground v.1.15,2013-03-04 15:46:00,
2013-03-04 07:52:00,35.8,32.9,30.05,ENE,57,1.0,9.0,89,0.00,,,0.00,Wunderground v.1.15,2013-03-04 15:52:00,
2013-03-04 07:57:00,36.0,33.1,30.05,ENE,57,0.0,9.0,89,0.00,,,0.00,Wunderground v.1.15,2013-03-04 15:57:00,
2013-03-04 08:03:00,36.4,33.7,30.05,ENE,57,0.0,9.0,90,0.00,,,0.00,Wunderground v.1.15,2013-03-04 16:03:00,
2013-03-04 08:08:00,36.8,34.1,30.06,ENE,57,0.0,9.0,90,0.00,,,0.00,Wunderground v.1.15,2013-03-04 16:08:00,
2013-03-04 08:14:00,37.3,34.6,30.06,ENE,57,0.0,9.0,90,0.00,,,0.00,Wunderground v.1.15,2013-03-04 16:14:00,
2013-03-04 08:20:00,37.8,35.1,30.06,ENE,57,0.0,9.0,90,0.00,,,0.00,Wunderground v.1.15,2013-03-04 16:20:00,
2013-03-04 08:25:00,38.2,35.2,30.06,ENE,57,0.0,9.0,89,0.00,,,0.00,Wunderground v.1.15,2013-03-04 16:25:00,
2013-03-04 08:30:00,38.7,36.0,30.06,ENE,57,0.0,9.0,90,0.00,,,0.00,Wunderground v.1.15,2013-03-04 16:30:00,
2013-03-04 08:37:00,39.4,36.7,30.06,ENE,57,0.0,9.0,90,0.00,,,0.00,Wunderground v.1.15,2013-03-04 16:37:00,
2013-03-04 08:42:00,40.0,37.3,30.05,ENE,57,0.0,9.0,90,0.00,,,0.00,Wunderground v.1.15,2013-03-04 16:42:00,
2013-03-04 08:47:00,40.6,37.9,30.05,ENE,57,1.0,9.0,90,0.00,,,0.00,Wunderground v.1.15,2013-03-04 16:47:00,
2013-03-04 08:52:00,41.3,38.3,30.05,ENE,57,1.0,9.0,89,0.00,,,0.00,Wunderground v.1.15,2013-03-04 16:52:00,
2013-03-04 08:58:00,41.8,38.5,30.04,ENE,57,2.0,9.0,88,0.00,,,0.00,Wunderground v.1.15,2013-03-04 16:58:00,
2013-03-04 09:03:00,42.5,38.9,30.04,ENE,57,1.0,9.0,87,0.00,,,0.00,Wunderground v.1.15,2013-03-04 17:03:00,
2013-03-04 09:08:00,43.1,39.2,30.04,ENE,57,2.0,9.0,86,0.00,,,0.00,Wunderground v.1.15,2013-03-04 17:08:00,
2013-03-04 09:14:00,43.6,39.4,30.04,ENE,57,3.0,9.0,85,0.00,,,0.00,Wunderground v.1.15,2013-03-04 17:14:00,
2013-03-04 09:20:00,44.0,39.5,30.04,ENE,57,2.0,9.0,84,0.00,,,0.00,Wunderground v.1.15,2013-03-04 17:20:00,
2013-03-04 09:26:00,44.8,40.3,30.04,ENE,57,2.0,9.0,84,0.00,,,0.00,Wunderground v.1.15,2013-03-04 17:26:00,
2013-03-04 09:32:00,45.5,40.9,30.04,SE,144,3.0,9.0,84,0.00,,,0.00,Wunderground v.1.15,2013-03-04 17:32:00,
2013-03-04 09:37:00,45.3,40.4,30.04,SE,144,4.0,9.0,83,0.00,,,0.00,Wunderground v.1.15,2013-03-04 17:37:00,
2013-03-04 09:43:00,44.8,40.0,30.05,SE,144,4.0,9.0,83,0.00,,,0.00,Wunderground v.1.15,2013-03-04 17:43:00,
2013-03-04 09:49:00,44.6,40.1,30.05,SE,144,4.0,9.0,84,0.00,,,0.00,Wunderground v.1.15,2013-03-04 17:49:00,
2013-03-04 09:55:00,44.6,40.1,30.05,SE,144,4.0,9.0,84,0.00,,,0.00,Wunderground v.1.15,2013-03-04 17:55:00,
2013-03-04 10:00:00,44.7,40.2,30.05,SE,144,4.0,9.0,84,0.00,,,0.00,Wunderground v.1.15,2013-03-04 18:00:00,
2013-03-04 10:06:00,44.7,40.2,30.05,SE,144,4.0,9.0,84,0.00,,,0.00,Wunderground v.1.15,2013-03-04 18:06:00,
2013-03-04 10:11:00,44.8,40.3,30.05,SE,144,4.0,9.0,84,0.00,,,0.00,Wunderground v.1.15,2013-03-04 18:11:00,
2013-03-04 10:18:00,44.9,40.7,30.05,SE,144,4.0,9.0,85,0.00,,,0.00,Wunderground v.1.15,2013-03-04 18:18:00,
2013-03-04 10:24:00,45.0,40.8,30.05,SSE,148,4.0,9.0,85,0.00,,,0.00,Wunderground v.1.15,2013-03-04 18:24:00,
2013-03-04 10:29:00,45.0,41.1,30.05,SSE,148,4.0,4.0,86,0.00,,,0.00,Wunderground v.1.15,2013-03-04 18:29:00,
2013-03-04 10:30:00,45.0,41.1,30.05,SSE,148,4.0,9.0,86,0.00,,,0.00,Wunderground v.1.15,2013-03-04 18:30:00,
2013-03-04 10:32:00,45.1,41.2,30.05,SSE,148,4.0,9.0,86,0.00,,,0.00,Wunderground v.1.15,2013-03-04 18:32:00,
2013-03-04 10:33:00,45.1,41.2,30.05,SSE,148,4.0,9.0,86,0.00,,,0.00,Wunderground v.1.15,2013-03-04 18:33:00,
2013-03-04 10:38:00,45.5,41.9,30.05,SSE,156,4.0,9.0,87,0.00,,,0.00,Wunderground v.1.15,2013-03-04 18:38:00,
2013-03-04 10:43:00,45.8,42.4,30.05,SW,217,6.0,11.0,88,0.00,,,0.00,Wunderground v.1.15,2013-03-04 18:43:00,
2013-03-04 10:48:00,45.9,42.2,30.05,SSW,202,7.0,11.0,87,0.00,,,0.00,Wunderground v.1.15,2013-03-04 18:48:00,
2013-03-04 10:53:00,45.8,42.2,30.05,SSW,209,7.0,10.0,87,0.00,,,0.00,Wunderground v.1.15,2013-03-04 18:53:00,
2013-03-04 10:59:00,46.1,42.4,30.05,SSW,200,7.0,10.0,87,0.00,,,0.00,Wunderground v.1.15,2013-03-04 18:59:00,
2013-03-04 11:04:00,46.2,42.8,30.05,SSW,206,7.0,10.0,88,0.00,,,0.00,Wunderground v.1.15,2013-03-04 19:04:00,
2013-03-04 11:10:00,46.5,43.1,30.05,SSW,208,7.0,9.0,88,0.00,,,0.00,Wunderground v.1.15,2013-03-04 19:10:00,
2013-03-04 11:15:00,46.7,43.3,30.04,SSW,200,8.0,11.0,88,0.00,,,0.00,Wunderground v.1.15,2013-03-04 19:15:00,
2013-03-04 11:20:00,47.3,43.9,30.04,South,185,8.0,10.0,88,0.00,,,0.00,Wunderground v.1.15,2013-03-04 19:20:00,
2013-03-04 11:26:00,47.3,43.6,30.04,SSW,199,8.0,12.0,87,0.00,,,0.00,Wunderground v.1.15,2013-03-04 19:26:00,
2013-03-04 11:32:00,47.4,43.7,30.04,SSW,194,9.0,11.0,87,0.00,,,0.00,Wunderground v.1.15,2013-03-04 19:32:00,
2013-03-04 11:38:00,47.8,44.1,30.03,SSW,207,9.0,16.0,87,0.00,,,0.00,Wunderground v.1.15,2013-03-04 19:38:00,
2013-03-04 11:43:00,47.9,43.9,30.03,SSW,202,10.0,13.0,86,0.00,,,0.00,Wunderground v.1.15,2013-03-04 19:43:00,
2013-03-04 11:49:00,47.9,43.6,30.03,SSW,199,11.0,14.0,85,0.00,,,0.00,Wunderground v.1.15,2013-03-04 19:49:00,
2013-03-04 11:55:00,48.0,44.0,30.03,South,189,11.0,14.0,86,0.00,,,0.00,Wunderground v.1.15,2013-03-04 19:55:00,
2013-03-04 12:01:00,47.9,43.6,30.03,SSW,200,11.0,15.0,85,0.00,,,0.00,Wunderground v.1.15,2013-03-04 20:01:00,
2013-03-04 12:07:00,47.7,43.1,30.03,SSW,196,13.0,17.0,84,0.00,,,0.00,Wunderground v.1.15,2013-03-04 20:07:00,
2013-03-04 12:12:00,47.8,43.2,30.02,SSW,207,14.0,24.0,84,0.00,,,0.00,Wunderground v.1.15,2013-03-04 20:12:00,
2013-03-04 12:18:00,48.0,43.4,30.02,South,189,14.0,24.0,84,0.00,,,0.00,Wunderground v.1.15,2013-03-04 20:18:00,
2013-03-04 12:23:00,48.1,43.2,30.01,SSW,199,14.0,16.0,83,0.00,,,0.00,Wunderground v.1.15,2013-03-04 20:23:00,
2013-03-04 12:28:00,48.5,43.6,30.02,SSW,198,13.0,16.0,83,0.00,,,0.00,Wunderground v.1.15,2013-03-04 20:28:00,
2013-03-04 12:34:00,48.6,43.4,30.02,South,180,13.0,18.0,82,0.00,,,0.00,Wunderground v.1.15,2013-03-04 20:34:00,
2013-03-04 12:39:00,48.7,43.1,30.01,South,186,14.0,18.0,81,0.00,,,0.00,Wunderground v.1.15,2013-03-04 20:39:00,
2013-03-04 12:45:00,48.7,42.8,30.00,SSW,192,15.0,22.0,80,0.00,,,0.00,Wunderground v.1.15,2013-03-04 20:45:00,
2013-03-04 12:51:00,48.8,42.6,30.00,South,184,16.0,22.0,79,0.00,,,0.00,Wunderground v.1.15,2013-03-04 20:51:00,
2013-03-04 12:57:00,48.9,43.0,30.00,SSW,194,16.0,23.0,80,0.00,,,0.00,Wunderground v.1.15,2013-03-04 20:57:00,
2013-03-04 13:03:00,48.9,43.0,30.00,SW,229,16.0,17.0,80,0.00,,,0.00,Wunderground v.1.15,2013-03-04 21:03:00,
2013-03-04 13:09:00,48.8,42.9,30.00,SSW,211,15.0,26.0,80,0.00,,,0.00,Wunderground v.1.15,2013-03-04 21:09:00,
2013-03-04 13:15:00,48.8,42.6,29.99,South,178,16.0,20.0,79,0.00,,,0.00,Wunderground v.1.15,2013-03-04 21:15:00,
2013-03-04 13:20:00,48.8,42.2,29.99,SSW,208,17.0,17.0,78,0.00,,,0.00,Wunderground v.1.15,2013-03-04 21:20:00,
2013-03-04 13:25:00,49.0,42.4,29.99,SSW,200,17.0,19.0,78,0.00,,,0.00,Wunderground v.1.15,2013-03-04 21:25:00,
2013-03-04 13:30:00,49.1,42.5,29.99,SSW,198,16.0,16.0,78,0.00,,,0.00,Wunderground v.1.15,2013-03-04 21:30:00,
2013-03-04 13:35:00,49.2,42.6,29.99,SSW,213,15.0,22.0,78,0.00,,,0.00,Wunderground v.1.15,2013-03-04 21:35:00,
2013-03-04 13:41:00,49.0,42.8,29.99,SSW,192,15.0,17.0,79,0.00,,,0.00,Wunderground v.1.15,2013-03-04 21:41:00,
2013-03-04 13:46:00,49.2,43.0,29.99,SSW,206,14.0,20.0,79,0.00,,,0.00,Wunderground v.1.15,2013-03-04 21:46:00,
2013-03-04 13:52:00,48.8,42.6,30.00,SW,218,13.0,18.0,79,0.00,,,0.00,Wunderground v.1.15,2013-03-04 21:52:00,
2013-03-04 13:58:00,47.9,42.0,29.99,SSW,209,16.0,23.0,80,0.00,,,0.00,Wunderground v.1.15,2013-03-04 21:58:00,
2013-03-04 14:04:00,48.2,42.0,29.99,SSW,204,16.0,19.0,79,0.00,,,0.00,Wunderground v.1.15,2013-03-04 22:04:00,
2013-03-04 14:09:00,47.8,41.6,29.99,South,190,15.0,17.0,79,0.00,,,0.00,Wunderground v.1.15,2013-03-04 22:09:00,
2013-03-04 14:14:00,47.6,41.4,29.99,SSW,209,17.0,22.0,79,0.00,,,0.00,Wunderground v.1.15,2013-03-04 22:14:00,
2013-03-04 14:21:00,48.0,41.8,29.99,SSW,209,16.0,18.0,79,0.00,,,0.00,Wunderground v.1.15,2013-03-04 22:21:00,
2013-03-04 14:27:00,47.9,41.4,29.98,SW,215,15.0,18.0,78,0.00,,,0.00,Wunderground v.1.15,2013-03-04 22:27:00,
2013-03-04 14:32:00,48.1,41.9,29.99,SSW,206,14.0,17.0,79,0.00,,,0.00,Wunderground v.1.15,2013-03-04 22:32:00,
2013-03-04 14:38:00,48.3,41.8,29.99,SSW,197,14.0,17.0,78,0.00,,,0.00,Wunderground v.1.15,2013-03-04 22:38:00,
2013-03-04 14:43:00,48.3,41.8,29.99,SSW,205,14.0,15.0,78,0.00,,,0.00,Wunderground v.1.15,2013-03-04 22:43:00,
2013-03-04 14:48:00,48.4,41.9,29.99,SSW,207,13.0,18.0,78,0.00,,,0.00,Wunderground v.1.15,2013-03-04 22:48:00,
2013-03-04 14:54:00,48.3,41.8,29.99,SW,220,13.0,22.0,78,0.00,,,0.00,Wunderground v.1.15,2013-03-04 22:54:00,
2013-03-04 14:59:00,48.1,41.2,29.99,SW,217,14.0,25.0,77,0.00,,,0.00,Wunderground v.1.15,2013-03-04 22:59:00,
2013-03-04 15:05:00,47.9,41.7,29.99,SW,217,14.0,26.0,79,0.00,,,0.00,Wunderground v.1.15,2013-03-04 23:05:00,
2013-03-04 15:10:00,48.1,41.9,29.98,SW,218,14.0,18.0,79,0.00,,,0.00,Wunderground v.1.15,2013-03-04 23:10:00,
2013-03-04 15:15:00,48.0,41.8,29.98,SSW,207,14.0,21.0,79,0.00,,,0.00,Wunderground v.1.15,2013-03-04 23:15:00,
2013-03-04 15:20:00,48.0,41.8,29.98,SSW,202,14.0,16.0,79,0.00,,,0.00,Wunderground v.1.15,2013-03-04 23:20:00,
2013-03-04 15:27:00,48.1,41.9,29.98,SW,214,14.0,22.0,79,0.00,,,0.00,Wunderground v.1.15,2013-03-04 23:27:00,
2013-03-04 15:32:00,48.1,42.2,29.99,SW,215,13.0,21.0,80,0.00,,,0.00,Wunderground v.1.15,2013-03-04 23:32:00,
2013-03-04 15:37:00,47.8,41.9,29.98,South,189,14.0,21.0,80,0.00,,,0.00,Wunderground v.1.15,2013-03-04 23:37:00,
2013-03-04 15:43:00,48.1,42.2,29.98,SSW,203,13.0,14.0,80,0.00,,,0.00,Wunderground v.1.15,2013-03-04 23:43:00,
2013-03-04 15:48:00,48.0,41.8,29.98,SSW,205,12.0,17.0,79,0.00,,,0.00,Wunderground v.1.15,2013-03-04 23:48:00,
2013-03-04 15:53:00,47.8,41.9,29.99,SW,216,14.0,18.0,80,0.00,,,0.00,Wunderground v.1.15,2013-03-04 23:53:00,
2013-03-04 15:58:00,47.7,42.2,29.98,SW,214,14.0,19.0,81,0.00,,,0.00,Wunderground v.1.15,2013-03-04 23:58:00,
2013-03-04 16:05:00,47.4,41.5,29.98,South,178,15.0,20.0,80,0.00,,,0.00,Wunderground v.1.15,2013-03-05 00:05:00,
2013-03-04 16:10:00,47.3,41.4,29.98,SW,218,15.0,19.0,80,0.00,,,0.00,Wunderground v.1.15,2013-03-05 00:10:00,
2013-03-04 16:15:00,47.2,41.7,29.98,SSW,202,14.0,19.0,81,0.00,,,0.00,Wunderground v.1.15,2013-03-05 00:15:00,
2013-03-04 16:21:00,47.2,41.7,29.98,SW,214,13.0,21.0,81,0.00,,,0.00,Wunderground v.1.15,2013-03-05 00:21:00,
2013-03-04 16:26:00,47.3,42.1,29.98,SW,227,13.0,21.0,82,0.00,,,0.00,Wunderground v.1.15,2013-03-05 00:26:00,
2013-03-04 16:31:00,47.1,41.9,29.98,SSW,209,12.0,14.0,82,0.00,,,0.00,Wunderground v.1.15,2013-03-05 00:31:00,
2013-03-04 16:37:00,46.9,41.7,29.97,SSW,209,14.0,19.0,82,0.00,,,0.00,Wunderground v.1.15,2013-03-05 00:37:00,
2013-03-04 16:43:00,47.1,41.9,29.97,South,189,13.0,18.0,82,0.00,,,0.00,Wunderground v.1.15,2013-03-05 00:43:00,
2013-03-04 16:48:00,47.0,41.8,29.96,South,185,12.0,19.0,82,0.00,,,0.00,Wunderground v.1.15,2013-03-05 00:48:00,
2013-03-04 16:53:00,47.1,41.9,29.97,SSW,201,12.0,14.0,82,0.00,,,0.00,Wunderground v.1.15,2013-03-05 00:53:00,
2013-03-04 16:58:00,46.9,41.4,29.96,SSW,204,12.0,16.0,81,0.00,,,0.00,Wunderground v.1.15,2013-03-05 00:58:00,
2013-03-04 17:03:00,46.9,41.7,29.97,SW,221,12.0,15.0,82,0.00,,,0.00,Wunderground v.1.15,2013-03-05 01:03:00,
2013-03-04 17:08:00,46.7,41.5,29.96,SSW,201,12.0,15.0,82,0.00,,,0.00,Wunderground v.1.15,2013-03-05 01:08:00,
2013-03-04 17:15:00,46.5,41.3,29.97,SSW,196,12.0,16.0,82,0.00,,,0.00,Wunderground v.1.15,2013-03-05 01:15:00,
2013-03-04 17:20:00,46.3,41.1,29.97,SSW,208,13.0,15.0,82,0.00,,,0.00,Wunderground v.1.15,2013-03-05 01:20:00,
2013-03-04 17:25:00,46.1,40.9,29.97,SSW,198,14.0,15.0,82,0.00,,,0.00,Wunderground v.1.15,2013-03-05 01:25:00,
2013-03-04 17:31:00,45.9,41.0,29.97,SW,217,14.0,14.0,83,0.00,,,0.00,Wunderground v.1.15,2013-03-05 01:31:00,
2013-03-04 17:37:00,45.9,41.0,29.97,South,190,13.0,23.0,83,0.00,,,0.00,Wunderground v.1.15,2013-03-05 01:37:00,
2013-03-04 17:43:00,45.7,41.1,29.97,SW,220,14.0,18.0,84,0.00,,,0.00,Wunderground v.1.15,2013-03-05 01:43:00,
2013-03-04 17:49:00,45.4,40.5,29.97,SSW,201,14.0,19.0,83,0.00,,,0.00,Wunderground v.1.15,2013-03-05 01:49:00,
2013-03-04 17:54:00,45.1,39.9,29.97,SSW,198,15.0,24.0,82,0.00,,,0.00,Wunderground v.1.15,2013-03-05 01:54:00,
2013-03-04 18:01:00,44.9,39.7,29.96,SSE,165,16.0,24.0,82,0.00,,,0.00,Wunderground v.1.15,2013-03-05 02:01:00,
2013-03-04 18:06:00,44.8,40.3,29.96,SSW,202,14.0,24.0,84,0.00,,,0.00,Wunderground v.1.15,2013-03-05 02:06:00,
2013-03-04 18:12:00,44.7,40.2,29.95,South,188,12.0,15.0,84,0.00,,,0.00,Wunderground v.1.15,2013-03-05 02:12:00,
2013-03-04 18:18:00,44.5,40.0,29.95,SSW,200,12.0,15.0,84,0.00,,,0.00,Wunderground v.1.15,2013-03-05 02:18:00,
2013-03-04 18:23:00,44.4,40.2,29.95,South,190,13.0,17.0,85,0.00,,,0.00,Wunderground v.1.15,2013-03-05 02:23:00,
2013-03-04 18:28:00,44.3,40.1,29.95,South,191,13.0,19.0,85,0.00,,,0.00,Wunderground v.1.15,2013-03-05 02:28:00,
2013-03-04 18:33:00,44.4,40.2,29.95,SSW,198,12.0,16.0,85,0.00,,,0.00,Wunderground v.1.15,2013-03-05 02:33:00,
2013-03-04 18:39:00,44.2,40.0,29.95,SSW,192,12.0,17.0,85,0.00,,,0.00,Wunderground v.1.15,2013-03-05 02:39:00,
2013-03-04 18:44:00,44.1,39.9,29.95,SSW,199,11.0,12.0,85,0.00,,,0.00,Wunderground v.1.15,2013-03-05 02:44:00,
2013-03-04 18:50:00,43.9,39.7,29.95,South,186,11.0,12.0,85,0.00,,,0.00,Wunderground v.1.15,2013-03-05 02:50:00,
2013-03-04 18:55:00,43.7,39.5,29.94,South,187,11.0,14.0,85,0.00,,,0.00,Wunderground v.1.15,2013-03-05 02:55:00,
2013-03-04 19:01:00,43.6,39.4,29.94,SSW,211,11.0,12.0,85,0.00,,,0.00,Wunderground v.1.15,2013-03-05 03:01:00,
2013-03-04 19:07:00,43.5,39.6,29.94,South,173,10.0,13.0,86,0.00,,,0.00,Wunderground v.1.15,2013-03-05 03:07:00,
2013-03-04 19:13:00,43.4,39.5,29.94,SSE,166,9.0,10.0,86,0.00,,,0.00,Wunderground v.1.15,2013-03-05 03:13:00,
2013-03-04 19:18:00,43.3,39.4,29.94,South,183,9.0,13.0,86,0.00,,,0.00,Wunderground v.1.15,2013-03-05 03:18:00,
2013-03-04 19:24:00,43.2,39.3,29.93,South,175,8.0,9.0,86,0.00,,,0.00,Wunderground v.1.15,2013-03-05 03:24:00,
2013-03-04 19:29:00,43.2,39.3,29.93,South,170,7.0,10.0,86,0.00,,,0.00,Wunderground v.1.15,2013-03-05 03:29:00,
2013-03-04 19:35:00,43.2,39.0,29.94,South,186,6.0,9.0,85,0.00,,,0.00,Wunderground v.1.15,2013-03-05 03:35:00,
2013-03-04 19:40:00,43.3,39.4,29.93,SSW,192,6.0,9.0,86,0.00,,,0.00,Wunderground v.1.15,2013-03-05 03:40:00,
2013-03-04 19:46:00,43.4,39.5,29.93,South,187,6.0,9.0,86,0.00,,,0.00,Wunderground v.1.15,2013-03-05 03:46:00,
2013-03-04 19:51:00,43.6,39.7,29.93,South,186,7.0,9.0,86,0.00,,,0.00,Wunderground v.1.15,2013-03-05 03:51:00,
2013-03-04 19:57:00,43.8,39.9,29.93,South,189,7.0,9.0,86,0.00,,,0.00,Wunderground v.1.15,2013-03-05 03:57:00,
2013-03-04 20:03:00,43.9,40.3,29.93,SSW,208,8.0,9.0,87,0.00,,,0.00,Wunderground v.1.15,2013-03-05 04:03:00,
2013-03-04 20:08:00,44.0,40.4,29.93,South,184,8.0,10.0,87,0.00,,,0.00,Wunderground v.1.15,2013-03-05 04:08:00,
2013-03-04 20:14:00,44.0,40.4,29.93,South,175,8.0,13.0,87,0.00,,,0.00,Wunderground v.1.15,2013-03-05 04:14:00,
2013-03-04 20:19:00,44.1,40.8,29.93,South,170,8.0,13.0,88,0.00,,,0.00,Wunderground v.1.15,2013-03-05 04:19:00,
2013-03-04 20:24:00,44.0,40.7,29.93,South,182,8.0,10.0,88,0.00,,,0.00,Wunderground v.1.15,2013-03-05 04:24:00,
2013-03-04 20:31:00,44.0,40.7,29.93,SSW,196,8.0,9.0,88,0.00,,,0.00,Wunderground v.1.15,2013-03-05 04:31:00,
2013-03-04 20:36:00,44.0,41.0,29.93,South,187,7.0,11.0,89,0.00,,,0.00,Wunderground v.1.15,2013-03-05 04:36:00,
2013-03-04 20:44:00,44.0,40.7,29.92,South,184,8.0,11.0,88,0.00,,,0.00,Wunderground v.1.15,2013-03-05 04:44:00,
2013-03-04 20:50:00,43.9,40.6,29.92,South,178,8.0,9.0,88,0.00,,,0.00,Wunderground v.1.15,2013-03-05 04:50:00,
2013-03-04 20:55:00,43.9,40.6,29.92,South,183,8.0,9.0,88,0.00,,,0.00,Wunderground v.1.15,2013-03-05 04:55:00,
2013-03-04 21:00:00,43.6,40.3,29.92,South,180,7.0,9.0,88,0.00,,,0.00,Wunderground v.1.15,2013-03-05 05:00:00,
2013-03-04 21:01:00,43.5,40.2,29.92,South,182,7.0,12.0,88,0.00,,,0.00,Wunderground v.1.15,2013-03-05 05:01:00,
2013-03-04 21:03:00,43.4,40.1,29.92,SSE,156,7.0,12.0,88,0.00,,,0.00,Wunderground v.1.15,2013-03-05 05:03:00,
2013-03-04 21:04:00,43.4,40.1,29.92,SSE,155,7.0,12.0,88,0.00,,,0.00,Wunderground v.1.15,2013-03-05 05:04:00,
2013-03-04 21:09:00,43.2,39.6,29.92,South,171,7.0,12.0,87,0.00,,,0.00,Wunderground v.1.15,2013-03-05 05:09:00,
2013-03-04 21:14:00,42.9,39.3,29.91,SSE,159,6.0,9.0,87,0.00,,,0.00,Wunderground v.1.15,2013-03-05 05:14:00,
2013-03-04 21:20:00,42.6,39.0,29.91,SE,145,4.0,9.0,87,0.00,,,0.00,Wunderground v.1.15,2013-03-05 05:20:00,
2013-03-04 21:26:00,42.3,38.7,29.91,SE,146,3.0,9.0,87,0.00,,,0.00,Wunderground v.1.15,2013-03-05 05:26:00,
2013-03-04 21:31:00,42.1,38.5,29.91,SE,143,3.0,9.0,87,0.00,,,0.00,Wunderground v.1.15,2013-03-05 05:31:00,
2013-03-04 21:37:00,41.8,38.2,29.91,SE,143,2.0,9.0,87,0.00,,,0.00,Wunderground v.1.15,2013-03-05 05:37:00,
2013-03-04 21:43:00,41.4,37.8,29.90,SE,143,1.0,9.0,87,0.00,,,0.00,Wunderground v.1.15,2013-03-05 05:43:00,
2013-03-04 21:49:00,41.2,37.6,29.90,SE,143,0.0,9.0,87,0.00,,,0.00,Wunderground v.1.15,2013-03-05 05:49:00,
2013-03-04 21:55:00,41.0,37.4,29.90,SE,126,1.0,9.0,87,0.00,,,0.00,Wunderground v.1.15,2013-03-05 05:55:00,
2013-03-04 22:01:00,40.7,37.1,29.89,ESE,109,1.0,9.0,87,0.00,,,0.00,Wunderground v.1.15,2013-03-05 06:01:00,
2013-03-04 22:07:00,40.5,36.9,29.89,ESE,103,1.0,9.0,87,0.00,,,0.00,Wunderground v.1.15,2013-03-05 06:07:00,
2013-03-04 22:12:00,40.4,36.8,29.89,ESE,103,1.0,9.0,87,0.00,,,0.00,Wunderground v.1.15,2013-03-05 06:12:00,
2013-03-04 22:17:00,40.4,36.5,29.89,ESE,103,1.0,9.0,86,0.00,,,0.00,Wunderground v.1.15,2013-03-05 06:17:00,
2013-03-04 22:23:00,40.4,36.5,29.89,ESE,103,0.0,9.0,86,0.00,,,0.00,Wunderground v.1.15,2013-03-05 06:23:00,
2013-03-04 22:29:00,40.4,36.2,29.89,ESE,103,1.0,9.0,85,0.00,,,0.00,Wunderground v.1.15,2013-03-05 06:29:00,
2013-03-04 22:35:00,40.4,35.9,29.89,ESE,103,1.0,9.0,84,0.00,,,0.00,Wunderground v.1.15,2013-03-05 06:35:00,
2013-03-04 22:40:00,40.6,35.8,29.89,ESE,103,1.0,9.0,83,0.00,,,0.00,Wunderground v.1.15,2013-03-05 06:40:00,
2013-03-04 22:45:00,40.6,35.5,29.88,ESE,103,1.0,9.0,82,0.00,,,0.00,Wunderground v.1.15,2013-03-05 06:45:00,
2013-03-04 22:51:00,40.6,35.2,29.88,ESE,103,1.0,9.0,81,0.00,,,0.00,Wunderground v.1.15,2013-03-05 06:51:00,
2013-03-04 22:57:00,40.6,34.9,29.88,ESE,103,1.0,9.0,80,0.00,,,0.00,Wunderground v.1.15,2013-03-05 06:57:00,
2013-03-04 23:02:00,40.9,34.9,29.88,ESE,103,2.0,9.0,79,0.00,,,0.00,Wunderground v.1.15,2013-03-05 07:02:00,
2013-03-04 23:08:00,41.2,34.9,29.88,ESE,103,2.0,9.0,78,0.00,,,0.00,Wunderground v.1.15,2013-03-05 07:08:00,
2013-03-04 23:14:00,41.6,35.6,29.88,ESE,103,1.0,9.0,79,0.00,,,0.00,Wunderground v.1.15,2013-03-05 07:14:00,
2013-03-04 23:19:00,42.7,37.3,29.88,South,174,3.0,9.0,81,0.00,,,0.00,Wunderground v.1.15,2013-03-05 07:19:00,
2013-03-04 23:24:00,44.0,38.2,29.88,South,190,5.0,9.0,80,0.00,,,0.00,Wunderground v.1.15,2013-03-05 07:24:00,
2013-03-04 23:30:00,44.9,38.8,29.88,SSW,195,7.0,11.0,79,0.00,,,0.00,Wunderground v.1.15,2013-03-05 07:30:00,
2013-03-04 23:35:00,45.3,38.5,29.87,South,190,8.0,11.0,77,0.00,,,0.00,Wunderground v.1.15,2013-03-05 07:35:00,
2013-03-04 23:40:00,45.7,38.2,29.87,South,184,9.0,14.0,75,0.00,,,0.00,Wunderground v.1.15,2013-03-05 07:40:00,
2013-03-04 23:46:00,45.9,38.4,29.87,South,180,10.0,14.0,75,0.00,,,0.00,Wunderground v.1.15,2013-03-05 07:46:00,
2013-03-04 23:51:00,45.9,38.1,29.87,South,190,10.0,10.0,74,0.00,,,0.00,Wunderground v.1.15,2013-03-05 07:51:00,
2013-03-04 23:57:00,46.0,37.8,29.87,South,188,10.0,12.0,73,0.00,,,0.00,Wunderground v.1.15,2013-03-05 07:57:00,